• en Suisse
  • Liste des pays
  • À 7 jours
  • Température de l'eau
  • Carte satellitaire
  • Carte météo
  • Widgets météo
  • user-avatar
    Se connecter

    Météo par heure à Cambridge

    Ce jour, 16 Novembre, Vendredi

    Heure Température Précipitation Vent Pression Humidité
    00:00 +10°C° 0 mm 2 m/s 765 mmHg 95%
    01:00 +9°C° 0 mm 2 m/s 765 mmHg 95%
    02:00 +9°C° 0 mm 2 m/s 766 mmHg 95%
    03:00 +9°C° 0 mm 2 m/s 766 mmHg 95%
    04:00 +9°C° 0 mm 2 m/s 766 mmHg 96%
    05:00 +9°C° 0 mm 2 m/s 766 mmHg 96%
    06:00 +9°C° 0 mm 2 m/s 766 mmHg 96%
    07:00 +9°C° 0 mm 2 m/s 766 mmHg 95%
    08:00 +10°C° 0 mm 2 m/s 767 mmHg 95%
    09:00 +10°C° 0 mm 2 m/s 767 mmHg 95%
    10:00 +12°C° 0 mm 2 m/s 767 mmHg 90%
    11:00 +13°C° 0 mm 2 m/s 767 mmHg 86%
    12:00 +13°C° 0 mm 3 m/s 767 mmHg 81%
    13:00 +13°C° 0 mm 3 m/s 767 mmHg 82%
    14:00 +13°C° 0 mm 3 m/s 767 mmHg 83%
    15:00 +13°C° 0 mm 3 m/s 767 mmHg 83%
    16:00 +11°C° 0 mm 3 m/s 767 mmHg 87%
    17:00 +10°C° 0 mm 3 m/s 767 mmHg 90%
    18:00 +9°C° 0 mm 3 m/s 768 mmHg 93%
    19:00 +9°C° 0 mm 3 m/s 768 mmHg 93%
    20:00 +9°C° 0 mm 3 m/s 768 mmHg 93%
    21:00 +8°C° 0 mm 3 m/s 768 mmHg 93%
    22:00 +8°C° 0 mm 3 m/s 768 mmHg 92%
    23:00 +8°C° 0 mm 3 m/s 768 mmHg 92%

    Demain, 17 Novembre, Samedi

    Heure Température Précipitation Vent Pression Humidité
    00:00 +8°C° 0 mm 3 m/s 768 mmHg 91%
    01:00 +8°C° 0 mm 3 m/s 768 mmHg 90%
    02:00 +8°C° 0 mm 3 m/s 768 mmHg 89%
    03:00 +8°C° 0 mm 3 m/s 768 mmHg 88%
    04:00 +7°C° 0 mm 3 m/s 768 mmHg 88%
    05:00 +7°C° 0 mm 3 m/s 768 mmHg 87%
    06:00 +7°C° 0 mm 3 m/s 768 mmHg 86%
    07:00 +8°C° 0 mm 3 m/s 768 mmHg 83%
    08:00 +7°C° 0 mm 4 m/s 769 mmHg 81%
    09:00 +7°C° 0 mm 4 m/s 769 mmHg 79%
    10:00 +8°C° 0 mm 5 m/s 769 mmHg 74%
    11:00 +9°C° 0 mm 5 m/s 769 mmHg 69%
    12:00 +12°C° 0 mm 5 m/s 769 mmHg 64%
    13:00 +10°C° 0 mm 5 m/s 768 mmHg 65%
    14:00 +10°C° 0 mm 5 m/s 768 mmHg 66%
    15:00 +9°C° 0 mm 5 m/s 768 mmHg 67%
    16:00 +9°C° 0 mm 5 m/s 768 mmHg 70%
    17:00 +8°C° 0 mm 5 m/s 768 mmHg 73%
    18:00 +7°C° 0 mm 5 m/s 768 mmHg 76%
    19:00 +7°C° 0 mm 5 m/s 769 mmHg 76%
    20:00 +7°C° 0 mm 4 m/s 769 mmHg 75%
    21:00 +7°C° 0 mm 4 m/s 769 mmHg 75%
    22:00 +7°C° 0 mm 4 m/s 769 mmHg 75%
    23:00 +6°C° 0 mm 4 m/s 769 mmHg 76%

    Après-demain, 18 Novembre, Dimanche

    Heure Température Précipitation Vent Pression Humidité
    00:00 +6°C° 0 mm 4 m/s 769 mmHg 76%
    01:00 +6°C° 0 mm 4 m/s 769 mmHg 78%
    02:00 +6°C° 0 mm 4 m/s 769 mmHg 80%
    03:00 +6°C° 0 mm 4 m/s 769 mmHg 81%
    04:00 +5°C° 0 mm 4 m/s 769 mmHg 82%
    05:00 +5°C° 0 mm 4 m/s 769 mmHg 83%
    06:00 +5°C° 0 mm 4 m/s 770 mmHg 83%
    07:00 +6°C° 0 mm 4 m/s 770 mmHg 80%
    08:00 +6°C° 0 mm 4 m/s 770 mmHg 76%
    09:00 +7°C° 0 mm 4 m/s 770 mmHg 73%
    10:00 +8°C° 0 mm 5 m/s 770 mmHg 67%
    11:00 +9°C° 0 mm 5 m/s 770 mmHg 61%
    12:00 +10°C° 0 mm 5 m/s 770 mmHg 55%
    13:00 +10°C° 0 mm 5 m/s 770 mmHg 56%
    14:00 +9°C° 0 mm 5 m/s 769 mmHg 56%
    15:00 +9°C° 0 mm 5 m/s 769 mmHg 57%
    16:00 +8°C° 0 mm 5 m/s 769 mmHg 58%
    17:00 +7°C° 0 mm 5 m/s 769 mmHg 58%
    18:00 +7°C° 0 mm 5 m/s 769 mmHg 59%
    19:00 +7°C° 0 mm 5 m/s 769 mmHg 60%
    20:00 +6°C° 0 mm 5 m/s 769 mmHg 60%
    21:00 +6°C° 0 mm 5 m/s 769 mmHg 60%
    22:00 +6°C° 0 mm 4 m/s 769 mmHg 65%
    23:00 +6°C° 0 mm 4 m/s 769 mmHg 69%

    19 Novembre, Lundi

    Heure Température Précipitation Vent Pression Humidité
    00:00 +6°C° 0 mm 4 m/s 769 mmHg 74%
    01:00 +6°C° 0 mm 5 m/s 768 mmHg 77%
    02:00 +6°C° 0 mm 5 m/s 768 mmHg 80%
    03:00 +6°C° 0 mm 5 m/s 768 mmHg 83%
    04:00 +6°C° 0 mm 5 m/s 768 mmHg 79%
    05:00 +5°C° 0 mm 6 m/s 768 mmHg 75%
    06:00 +5°C° 0 mm 6 m/s 767 mmHg 72%
    07:00 +5°C° 0 mm 6 m/s 767 mmHg 71%
    08:00 +6°C° 0 mm 5 m/s 767 mmHg 71%
    09:00 +7°C° 0 mm 5 m/s 767 mmHg 71%
    10:00 +7°C° 0 mm 5 m/s 767 mmHg 70%
    11:00 +7°C° 0 mm 5 m/s 767 mmHg 69%
    12:00 +7°C° 0 mm 5 m/s 767 mmHg 68%
    13:00 +7°C° 0 mm 6 m/s 766 mmHg 69%
    14:00 +5°C° 0 mm 6 m/s 766 mmHg 69%
    15:00 +5°C° 0 mm 6 m/s 765 mmHg 70%
    16:00 +6°C° 0 mm 5 m/s 765 mmHg 68%
    17:00 +6°C° 0 mm 5 m/s 765 mmHg 67%
    18:00 +6°C° 0 mm 5 m/s 765 mmHg 65%
    19:00 +6°C° 0 mm 4 m/s 765 mmHg 67%
    20:00 +5°C° 0 mm 4 m/s 765 mmHg 69%
    21:00 +5°C° 0 mm 4 m/s 765 mmHg 71%
    22:00 +5°C° 0.1 mm 4 m/s 764 mmHg 73%
    23:00 +5°C° 0.1 mm 3 m/s 764 mmHg 76%

    20 Novembre, Mardi

    Heure Température Précipitation Vent Pression Humidité
    00:00 +5°C° 0.1 mm 3 m/s 764 mmHg 78%
    01:00 +5°C° 0.1 mm 3 m/s 763 mmHg 80%
    02:00 +5°C° 0.1 mm 3 m/s 763 mmHg 81%
    03:00 +5°C° 0.1 mm 3 m/s 763 mmHg 83%
    04:00 +4°C° 0.2 mm 3 m/s 762 mmHg 83%
    05:00 +4°C° 0.2 mm 3 m/s 762 mmHg 84%
    06:00 +4°C° 0.2 mm 3 m/s 761 mmHg 84%
    07:00 +5°C° 0.3 mm 4 m/s 761 mmHg 82%
    08:00 +5°C° 0.3 mm 4 m/s 761 mmHg 80%
    09:00 +5°C° 0.3 mm 4 m/s 760 mmHg 78%
    10:00 +5°C° 0.3 mm 4 m/s 760 mmHg 74%
    11:00 +6°C° 0.3 mm 5 m/s 760 mmHg 71%
    12:00 +6°C° 0.3 mm 5 m/s 759 mmHg 67%
    13:00 +6°C° 0.3 mm 4 m/s 759 mmHg 68%
    14:00 +6°C° 0.3 mm 4 m/s 758 mmHg 69%
    15:00 +6°C° 0.3 mm 4 m/s 758 mmHg 71%
    16:00 +5°C° 0.1 mm 4 m/s 758 mmHg 74%
    17:00 +4°C° 0.1 mm 3 m/s 758 mmHg 78%
    18:00 +3°C° 0.1 mm 3 m/s 758 mmHg 82%
    19:00 +3°C° 0 mm 3 m/s 758 mmHg 81%
    20:00 +3°C° 0 mm 3 m/s 758 mmHg 81%
    21:00 +3°C° 0 mm 3 m/s 759 mmHg 81%
    22:00 +2°C° 0 mm 3 m/s 758 mmHg 82%
    23:00 +2°C° 0 mm 3 m/s 758 mmHg 84%

    21 Novembre, Mercredi

    Heure Température Précipitation Vent Pression Humidité
    00:00 +2°C° 0 mm 3 m/s 758 mmHg 85%
    01:00 +2°C° 0.1 mm 3 m/s 758 mmHg 86%
    02:00 +2°C° 0.1 mm 3 m/s 757 mmHg 87%
    03:00 +2°C° 0.1 mm 3 m/s 757 mmHg 87%
    04:00 +3°C° 0.4 mm 2 m/s 757 mmHg 88%
    05:00 +3°C° 0.4 mm 2 m/s 757 mmHg 90%
    06:00 +4°C° 0.4 mm 2 m/s 757 mmHg 91%
    07:00 +4°C° 0.2 mm 2 m/s 757 mmHg 90%
    08:00 +4°C° 0.2 mm 2 m/s 757 mmHg 90%
    09:00 +4°C° 0.2 mm 2 m/s 757 mmHg 89%
    10:00 +5°C° 0.1 mm 2 m/s 757 mmHg 83%
    11:00 +5°C° 0.1 mm 3 m/s 757 mmHg 78%
    12:00 +7°C° 0.1 mm 3 m/s 757 mmHg 72%
    13:00 +5°C° 0.1 mm 3 m/s 757 mmHg 74%
    14:00 +5°C° 0.1 mm 3 m/s 757 mmHg 75%
    15:00 +6°C° 0.1 mm 2 m/s 757 mmHg 76%
    16:00 +5°C° 0 mm 2 m/s 758 mmHg 79%
    17:00 +4°C° 0 mm 2 m/s 758 mmHg 82%
    18:00 +4°C° 0 mm 1 m/s 758 mmHg 85%
    19:00 +4°C° 0 mm 1 m/s 758 mmHg 85%
    20:00 +4°C° 0 mm 1 m/s 758 mmHg 85%
    21:00 +4°C° 0 mm 1 m/s 758 mmHg 86%
    22:00 +3°C° 0.5 mm 2 m/s 758 mmHg 86%
    23:00 +2°C° 0.5 mm 3 m/s 758 mmHg 86%
    Voir plus